EA1FJG Weather Reports


Display with metric or nautical units.
time (UTC)temp
F
wind
direction
speed
MPH
gust
MPH
rain 1hr
in
rain 24hr
in
rain mn
in
humidity
%
barometer
mb
20260505051003 48 45 1.0 2.0 0.00 0.13 0.00 99 1016.0
20260505050924 48 45 1.0 2.0 0.00 0.13 0.00 99 1015.9
20260505050803 48 46 1.0 2.0 0.00 0.13 0.00 99 1015.9
20260505050703 48 49 1.0 3.0 0.00 0.13 0.00 99 1015.9
20260505050603 48 50 1.0 3.0 0.00 0.13 0.00 99 1015.9
20260505050503 48 50 2.0 3.0 0.00 0.13 0.00 99 1015.7
20260505050403 48 50 2.0 3.0 0.00 0.13 0.00 99 1015.8
20260505050303 48 51 2.0 3.0 0.00 0.13 0.00 99 1015.8
20260505050224 48 51 2.0 3.0 0.00 0.13 0.00 99 1015.8
20260505041703 47 46 1.0 2.0 0.00 0.13 0.00 99 1015.8
20260505041624 47 46 1.0 2.0 0.00 0.13 0.00 99 1015.8
20260505041503 47 47 1.0 2.0 0.00 0.13 0.00 99 1015.8
20260505041403 47 47 1.0 2.0 0.00 0.13 0.00 99 1015.9
20260505041324 47 48 1.0 2.0 0.00 0.13 0.00 99 1015.8
20260505041203 47 46 1.0 2.0 0.00 0.13 0.00 99 1015.9
20260505041103 47 47 1.0 2.0 0.00 0.13 0.00 99 1015.9
20260505041003 47 46 1.0 2.0 0.00 0.13 0.00 99 1015.9
20260505040924 47 45 0.0 2.0 0.00 0.13 0.00 99 1015.7
20260505040803 47 46 0.0 2.0 0.00 0.13 0.00 99 1015.8
20260505040703 47 49 0.0 2.0 0.00 0.13 0.00 99 1015.9
20260505040603 47 49 0.0 2.0 0.00 0.13 0.00 99 1015.9
20260505040524 47 49 0.0 2.0 0.00 0.13 0.00 99 1016.0
20260505040424 47 48 0.0 2.0 0.00 0.13 0.00 99 1016.0
20260505040303 47 48 0.0 2.0 0.00 0.13 0.00 99 1016.0
20260505040203 47 49 0.0 2.0 0.00 0.13 0.00 99 1016.0
20260505040003 47 49 0.0 2.0 0.00 0.13 0.00 99 1016.1
20260505035903 47 51 0.0 2.0 0.00 0.13 0.00 99 1016.0
20260505035803 47 49 0.0 2.0 0.00 0.13 0.00 99 1016.0
20260505035703 47 38 0.0 1.0 0.00 0.13 0.00 99 1016.2
20260505035603 47 38 0.0 1.0 0.00 0.13 0.00 99 1015.9
20260505035503 47 40 0.0 1.0 0.00 0.13 0.00 99 1016.1
20260505035403 47 42 0.0 1.0 0.00 0.13 0.00 99 1016.1
20260505035324 47 42 0.0 1.0 0.00 0.13 0.00 99 1016.1
20260505035224 47 40 0.0 1.0 0.00 0.13 0.00 99 1016.1
20260505035103 47 40 0.0 2.0 0.00 0.13 0.00 99 1016.1
20260505035024 47 40 0.0 2.0 0.00 0.13 0.00 99 1016.0
20260505034924 47 40 0.0 2.0 0.00 0.13 0.00 99 1016.2
20260505034803 47 40 0.0 2.0 0.00 0.13 0.00 99 1016.2
20260505034703 47 40 0.0 2.0 0.00 0.13 0.00 99 1016.3
20260505034603 47 40 1.0 2.0 0.00 0.13 0.00 99 1016.1
20260505034503 47 40 1.0 2.0 0.00 0.13 0.00 99 1016.1
20260505034403 47 41 1.0 2.0 0.00 0.13 0.00 99 1016.1
20260505034303 47 41 1.0 2.0 0.00 0.13 0.00 99 1016.0
20260505034203 47 41 1.0 2.0 0.00 0.13 0.00 99 1016.0
20260505034103 47 41 1.0 2.0 0.00 0.13 0.00 99 1016.0
20260505034003 47 41 1.0 2.0 0.00 0.13 0.00 99 1016.1
20260505033903 47 41 1.0 2.0 0.00 0.13 0.00 99 1016.2
20260505033803 47 41 1.0 2.0 0.00 0.13 0.00 99 1016.0
20260505033703 47 40 1.0 2.0 0.00 0.13 0.00 99 1016.1
20260505033603 47 40 1.0 1.0 0.00 0.13 0.00 99 1016.0
20260505033503 47 40 1.0 1.0 0.00 0.13 0.00 99 1016.0
20260505033403 47 39 1.0 1.0 0.00 0.13 0.00 99 1015.9
20260505033303 47 39 1.0 1.0 0.00 0.13 0.00 99 1016.1
20260505033203 47 39 1.0 1.0 0.00 0.13 0.00 99 1016.1
20260505033103 47 40 0.0 1.0 0.00 0.13 0.00 99 1016.0
20260505033003 47 40 0.0 1.0 0.00 0.13 0.00 99 1016.1
20260505032903 47 42 0.0 1.0 0.00 0.13 0.00 99 1016.0
20260505032803 47 42 0.0 1.0 0.00 0.13 0.00 99 1015.9
20260505032703 47 43 0.0 1.0 0.00 0.13 0.00 99 1016.2
20260505032603 47 45 1.0 2.0 0.00 0.13 0.00 99 1016.1
20260505032525 47 45 1.0 2.0 0.00 0.13 0.00 99 1016.1
20260505032403 47 46 1.0 2.0 0.00 0.13 0.00 99 1016.1
20260505032325 47 45 1.0 2.0 0.00 0.13 0.00 99 1016.0
20260505032203 47 45 1.0 2.0 0.00 0.13 0.00 99 1015.9
20260505032103 47 45 1.0 2.0 0.00 0.13 0.00 99 1016.1
20260505032003 47 45 1.0 2.0 0.00 0.13 0.00 99 1016.1
20260505031903 47 44 1.0 2.0 0.00 0.13 0.00 99 1016.0
20260505031803 47 42 1.0 2.0 0.00 0.13 0.00 99 1016.0
20260505031724 47 42 1.0 2.0 0.00 0.13 0.00 99 1016.1
20260505031603 47 42 1.0 2.0 0.00 0.13 0.00 99 1016.2
20260505031504 47 40 1.0 2.0 0.00 0.13 0.00 99 1016.1
20260505031403 47 41 1.0 2.0 0.00 0.13 0.00 99 1016.3
20260505031324 47 40 1.0 2.0 0.00 0.13 0.00 99 1016.1
20260505031203 47 43 1.0 2.0 0.00 0.13 0.00 99 1016.2
20260505031103 47 45 1.0 2.0 0.00 0.13 0.00 99 1016.1
20260505031003 47 46 1.0 2.0 0.00 0.13 0.00 99 1016.2
20260505030903 47 48 1.0 2.0 0.00 0.13 0.00 99 1016.3
20260505030803 47 52 1.0 2.0 0.00 0.13 0.00 99 1016.3
20260505030724 47 52 1.0 2.0 0.00 0.13 0.00 99 1016.3
20260505030603 47 53 1.0 2.0 0.00 0.13 0.00 99 1016.2
20260505030503 47 54 1.0 2.0 0.00 0.13 0.00 99 1016.2
20260505030403 47 54 1.0 2.0 0.00 0.13 0.00 99 1016.2
20260505030324 47 53 1.0 2.0 0.00 0.13 0.00 99 1016.2
20260505030203 47 55 1.0 2.0 0.00 0.13 0.00 99 1016.1
20260505030103 47 53 1.0 2.0 0.00 0.13 0.00 99 1016.1
20260505030003 47 53 1.0 2.0 0.00 0.13 0.00 99 1016.2
20260505025903 47 52 1.0 2.0 0.00 0.13 0.00 99 1016.2
20260505025803 47 53 1.0 2.0 0.00 0.13 0.00 99 1016.1
20260505025703 47 48 0.0 2.0 0.00 0.13 0.00 99 1016.2
20260505025624 47 50 0.0 2.0 0.00 0.13 0.00 99 1016.2
20260505025503 47 45 0.0 1.0 0.00 0.13 0.00 99 1016.0
20260505025424 47 45 0.0 1.0 0.00 0.13 0.00 99 1016.0
20260505025305 47 44 0.0 1.0 0.00 0.13 0.00 99 1016.2
20260505025203 47 44 0.0 1.0 0.00 0.13 0.00 99 1016.2
20260505025103 47 42 0.0 1.0 0.00 0.13 0.00 99 1016.3
20260505025003 47 45 1.0 2.0 0.00 0.13 0.00 99 1016.3
20260505024903 47 44 1.0 2.0 0.00 0.13 0.00 99 1016.2
20260505024803 47 44 1.0 2.0 0.00 0.13 0.00 99 1016.2
20260505024703 47 44 1.0 2.0 0.00 0.13 0.00 99 1016.3
20260505024603 47 43 1.0 2.0 0.00 0.13 0.00 99 1016.3
20260505024503 47 43 1.0 2.0 0.00 0.13 0.00 99 1016.2
20260505024403 47 43 1.0 2.0 0.00 0.13 0.00 99 1016.4
20260505024324 47 45 1.0 2.0 0.00 0.13 0.00 99 1016.6
20260505024203 47 45 1.0 2.0 0.00 0.13 0.00 99 1016.3
20260505024103 47 45 1.0 2.0 0.00 0.13 0.00 99 1016.5
20260505024003 47 45 1.0 2.0 0.00 0.13 0.00 99 1016.3
20260505023903 47 43 1.0 2.0 0.00 0.13 0.00 99 1016.3
20260505023824 47 43 1.0 2.0 0.00 0.13 0.00 99 1016.3
20260505023703 47 43 1.0 2.0 0.00 0.13 0.00 99 1016.4
20260505023603 47 44 1.0 2.0 0.00 0.13 0.00 99 1016.1
20260505023503 47 44 1.0 2.0 0.00 0.13 0.00 99 1016.1
20260505023403 47 56 1.0 3.0 0.00 0.13 0.00 99 1016.3
20260505023303 47 56 1.0 3.0 0.00 0.13 0.00 99 1016.4
20260505023224 47 60 1.0 3.0 0.00 0.13 0.00 99 1016.3
20260505023103 47 60 1.0 3.0 0.00 0.13 0.00 99 1016.2
20260505023003 47 60 1.0 3.0 0.00 0.13 0.00 99 1016.2
20260505022903 47 63 1.0 3.0 0.00 0.13 0.00 99 1016.3
20260505022824 47 65 1.0 3.0 0.00 0.13 0.00 99 1016.4
20260505022703 47 64 2.0 3.0 0.00 0.13 0.00 99 1016.2
20260505022603 47 66 1.0 3.0 0.00 0.13 0.00 99 1016.1
20260505022504 47 67 2.0 3.0 0.00 0.13 0.00 99 1016.2
20260505022403 47 67 2.0 3.0 0.00 0.13 0.00 99 1016.2
20260505022304 47 60 2.0 3.0 0.00 0.13 0.00 99 1016.3
20260505022224 47 59 2.0 3.0 0.00 0.13 0.00 99 1016.2
20260505022104 47 56 1.0 3.0 0.00 0.13 0.00 99 1016.2
20260505022003 47 56 1.0 3.0 0.00 0.13 0.00 99 1016.0
20260505021903 47 56 1.0 3.0 0.00 0.13 0.00 99 1016.1
20260505021803 47 55 1.0 3.0 0.00 0.13 0.00 99 1016.3
20260505021703 47 51 1.0 2.0 0.00 0.13 0.00 99 1016.2
20260505021603 47 51 1.0 2.0 0.00 0.13 0.00 99 1016.2
20260505021503 47 49 1.0 2.0 0.00 0.13 0.00 99 1016.2
20260505021403 47 46 1.0 2.0 0.00 0.13 0.00 99 1016.4
20260505021303 47 42 1.0 2.0 0.00 0.13 0.00 99 1016.3
20260505021203 47 45 1.0 2.0 0.00 0.13 0.00 99 1016.3
20260505021103 47 45 0.0 2.0 0.00 0.13 0.00 99 1016.2
20260505021003 47 44 1.0 2.0 0.00 0.13 0.00 99 1016.3
20260505020903 47 44 1.0 2.0 0.00 0.13 0.00 99 1016.2
20260505020803 47 44 1.0 2.0 0.00 0.13 0.00 99 1016.2
20260505020703 47 40 1.0 1.0 0.00 0.13 0.00 99 1016.4
20260505020603 47 42 1.0 1.0 0.00 0.13 0.00 99 1016.4
20260505020503 47 41 1.0 1.0 0.00 0.13 0.00 99 1016.3
20260505020403 47 41 1.0 1.0 0.00 0.13 0.00 99 1016.4
20260505020303 47 41 1.0 1.0 0.00 0.13 0.00 99 1016.3
20260505020203 47 43 1.0 1.0 0.00 0.13 0.00 99 1016.3
20260505020103 47 41 1.0 2.0 0.00 0.13 0.00 99 1016.3
20260505020003 47 41 1.0 2.0 0.00 0.13 0.00 99 1016.3
20260505015903 47 42 1.0 2.0 0.00 0.13 0.00 99 1016.3
20260505015803 47 43 1.0 2.0 0.00 0.13 0.00 99 1016.4
20260505015703 47 45 1.0 2.0 0.00 0.13 0.00 99 1016.5
20260505015603 47 46 1.0 2.0 0.00 0.13 0.00 99 1016.2
20260505015524 47 46 1.0 2.0 0.00 0.13 0.00 99 1016.2
20260505015403 47 46 1.0 2.0 0.00 0.13 0.00 99 1016.4
20260505015304 47 46 1.0 2.0 0.00 0.13 0.00 99 1016.3
20260505015224 47 46 1.0 2.0 0.00 0.13 0.00 99 1016.3
20260505015103 47 45 1.0 2.0 0.00 0.13 0.00 99 1016.4
20260505015003 47 45 1.0 2.0 0.00 0.13 0.00 99 1016.5
20260505014903 47 46 1.0 2.0 0.00 0.13 0.00 99 1016.4
20260505014803 47 45 1.0 2.0 0.00 0.13 0.00 99 1016.5
20260505014703 47 45 1.0 2.0 0.00 0.13 0.00 99 1016.5
20260505014603 47 42 0.0 2.0 0.00 0.13 0.00 99 1016.4
20260505014503 47 40 0.0 2.0 0.00 0.13 0.00 99 1016.5
20260505014403 47 38 0.0 1.0 0.00 0.13 0.00 99 1016.6
20260505014303 47 38 0.0 1.0 0.00 0.13 0.00 99 1016.5
20260505014203 47 39 0.0 1.0 0.00 0.13 0.00 99 1016.5
20260505014125 47 39 0.0 1.0 0.00 0.13 0.00 99 1016.5
20260505014025 47 39 0.0 1.0 0.00 0.13 0.00 99 1016.5
20260505013903 47 39 0.0 1.0 0.00 0.13 0.00 99 1016.5
20260505013803 47 37 0.0 1.0 0.00 0.13 0.00 99 1016.6
20260505013703 47 38 0.0 1.0 0.00 0.13 0.00 99 1016.6
20260505013604 47 38 0.0 1.0 0.00 0.13 0.00 99 1016.4
20260505013503 47 38 0.0 1.0 0.00 0.13 0.00 99 1016.4
20260505013403 48 38 0.0 1.0 0.00 0.13 0.00 99 1016.4
20260505013303 48 38 0.0 1.0 0.00 0.13 0.00 99 1016.5
20260505013203 48 38 0.0 1.0 0.00 0.13 0.00 99 1016.5
20260505013103 48 38 0.0 1.0 0.00 0.13 0.00 99 1016.5
20260505013003 48 38 0.0 1.0 0.00 0.13 0.00 99 1016.5
20260505012903 48 38 0.0 1.0 0.00 0.13 0.00 99 1016.5
20260505012803 48 38 0.0 1.0 0.00 0.13 0.00 99 1016.7
20260505012703 48 38 0.0 1.0 0.00 0.13 0.00 99 1016.5
20260505012603 48 38 0.0 1.0 0.00 0.13 0.00 99 1016.6
20260505012504 48 39 0.0 1.0 0.00 0.13 0.00 99 1016.4
20260505012403 48 38 0.0 1.0 0.00 0.13 0.00 99 1016.6
20260505012324 48 38 0.0 1.0 0.00 0.13 0.00 99 1016.6
20260505012203 48 43 0.0 1.0 0.00 0.13 0.00 99 1016.6
20260505012103 48 43 0.0 1.0 0.00 0.13 0.00 99 1016.6
20260505012003 48 43 0.0 1.0 0.00 0.13 0.00 99 1016.6
20260505011924 48 42 0.0 1.0 0.00 0.13 0.00 99 1016.5
20260505011803 48 42 0.0 1.0 0.00 0.13 0.00 99 1016.6
20260505011703 48 42 0.0 1.0 0.00 0.13 0.00 99 1016.4
20260505011624 48 41 1.0 2.0 0.00 0.13 0.00 99 1016.6
20260505011503 48 41 1.0 2.0 0.00 0.13 0.00 99 1016.5
20260505011424 48 40 1.0 2.0 0.00 0.13 0.00 99 1016.6
20260505011303 48 41 0.0 2.0 0.00 0.13 0.00 99 1016.6
20260505011203 48 41 1.0 2.0 0.00 0.13 0.00 99 1016.6
20260505011103 48 39 0.0 2.0 0.00 0.13 0.00 99 1016.5
20260505011003 48 38 1.0 2.0 0.00 0.13 0.00 99 1016.4
20260505010903 48 38 0.0 2.0 0.00 0.13 0.00 99 1016.6
20260505010803 48 38 0.0 2.0 0.00 0.13 0.00 99 1016.6
20260505010703 48 38 0.0 2.0 0.00 0.13 0.00 99 1016.6
20260505010604 48 38 1.0 2.0 0.00 0.13 0.00 99 1016.6
20260505010503 48 38 0.0 1.0 0.00 0.13 0.00 99 1016.7
20260505010403 48 39 0.0 1.0 0.00 0.13 0.00 99 1016.6
20260505010303 48 39 0.0 1.0 0.00 0.13 0.00 99 1016.5
20260505010203 48 38 0.0 1.0 0.00 0.13 0.00 99 1016.7
20260505010103 48 37 0.0 1.0 0.00 0.13 0.00 99 1016.5
20260505010003 48 38 0.0 1.0 0.00 0.13 0.00 99 1016.6
20260505005903 48 40 0.0 1.0 0.00 0.13 0.00 99 1016.6
20260505005803 48 42 0.0 1.0 0.00 0.13 0.00 99 1016.7
20260505005703 48 41 0.0 1.0 0.00 0.13 0.00 99 1016.5
20260505005603 48 41 0.0 1.0 0.00 0.13 0.00 99 1016.8
20260505005524 48 41 0.0 1.0 0.00 0.13 0.00 99 1016.8
20260505005403 48 43 1.0 2.0 0.00 0.13 0.00 99 1016.8
20260505005324 48 43 1.0 2.0 0.00 0.13 0.00 99 1016.8
20260505005224 48 43 1.0 2.0 0.00 0.13 0.00 99 1016.7
20260505005103 48 43 1.0 2.0 0.00 0.13 0.00 99 1016.7
20260505005024 48 46 1.0 2.0 0.00 0.13 0.00 99 1016.7
20260505004903 48 45 1.0 2.0 0.00 0.13 0.00 99 1016.8
20260505004824 48 45 1.0 2.0 0.00 0.13 0.00 99 1016.8
20260505004704 48 44 1.0 2.0 0.00 0.13 0.00 99 1016.8
20260505004624 48 45 1.0 2.0 0.00 0.13 0.00 99 1016.9
20260505004524 48 50 1.0 2.0 0.00 0.13 0.00 99 1016.8
20260505004403 48 52 1.0 2.0 0.00 0.13 0.00 99 1016.7
20260505004303 48 51 1.0 2.0 0.00 0.13 0.00 99 1016.9
20260505004224 48 51 1.0 2.0 0.00 0.13 0.00 99 1016.9
20260505004124 48 50 1.0 2.0 0.00 0.13 0.00 99 1016.8
20260505004003 48 51 1.0 2.0 0.00 0.13 0.00 99 1016.8
20260505003903 48 48 1.0 2.0 0.00 0.13 0.00 99 1016.8
20260505003803 48 48 1.0 2.0 0.00 0.13 0.00 99 1016.7
20260505003724 48 48 1.0 2.0 0.00 0.13 0.00 99 1016.7
20260505003603 48 49 1.0 2.0 0.00 0.13 0.00 99 1016.9
20260505003503 48 49 1.0 2.0 0.00 0.13 0.00 99 1016.9
20260505003424 48 42 0.0 1.0 0.00 0.13 0.00 99 1016.9
20260505003303 48 41 0.0 1.0 0.00 0.13 0.00 99 1017.0
20260505003203 48 40 0.0 1.0 0.00 0.13 0.00 99 1016.9
20260505003103 48 41 0.0 1.0 0.00 0.13 0.00 99 1016.8
20260505003003 48 38 0.0 1.0 0.00 0.13 0.00 99 1017.0
20260505002903 48 38 0.0 1.0 0.00 0.13 0.00 99 1016.9
20260505002803 48 38 0.0 1.0 0.00 0.13 0.00 99 1016.9
20260505002703 48 38 0.0 1.0 0.00 0.13 0.00 99 1016.9
20260505002603 48 38 0.0 1.0 0.00 0.13 0.00 99 1016.9
20260505002503 48 38 0.0 1.0 0.00 0.13 0.00 99 1016.8
20260505002403 48 38 0.0 1.0 0.00 0.13 0.00 99 1016.9
20260505002304 48 38 0.0 1.0 0.00 0.13 0.00 99 1016.8
20260505002203 48 38 0.0 1.0 0.00 0.13 0.00 99 1016.8
20260505002103 48 38 0.0 1.0 0.00 0.13 0.00 99 1016.9
20260505002003 48 38 0.0 1.0 0.00 0.13 0.00 99 1016.8
20260505001903 48 38 0.0 1.0 0.00 0.13 0.00 99 1017.0
20260505001803 48 38 0.0 1.0 0.00 0.13 0.00 99 1017.0
20260505001703 48 38 0.0 1.0 0.00 0.13 0.00 99 1016.9
20260505001503 48 39 0.0 1.0 0.00 0.13 0.00 99 1016.8
20260505001403 48 39 0.0 1.0 0.00 0.13 0.00 99 1016.6
20260505001303 48 40 0.0 1.0 0.00 0.13 0.00 99 1017.0
20260505001202 48 40 0.0 1.0 0.00 0.13 0.00 99 1017.0
20260505001103 48 40 0.0 1.0 0.00 0.13 0.00 99 1016.9
20260505001024 48 40 0.0 1.0 0.00 0.13 0.00 99 1016.9
20260505000902 48 40 1.0 1.0 0.00 0.13 0.00 99 1016.9
20260505000824 48 40 1.0 1.0 0.00 0.13 0.00 99 1017.0
20260505000702 48 40 1.0 1.0 0.00 0.13 0.00 99 1017.0
20260505000603 48 40 1.0 1.0 0.00 0.13 0.00 99 1017.0
20260505000503 48 40 1.0 1.0 0.00 0.13 0.00 99 1017.1
20260505000405 48 42 1.0 1.0 0.00 0.13 0.00 99 1016.9
20260505000303 48 42 1.0 1.0 0.00 0.13 0.00 99 1017.0
20260505000204 48 42 1.0 1.0 0.00 0.13 0.00 99 1017.0
20260505000003 48 42 1.0 1.0 0.00 0.13 0.00 99 1016.8
20260504235903 48 42 0.0 1.0 0.00 0.13 0.00 99 1017.0
20260504235803 48 42 1.0 1.0 0.00 0.13 0.00 99 1017.0
20260504235703 48 43 1.0 1.0 0.00 0.13 0.00 99 1017.0
20260504235624 48 43 1.0 1.0 0.00 0.13 0.00 99 1017.0
20260504235503 48 43 1.0 1.0 0.00 0.13 0.00 99 1017.1
20260504235424 48 43 1.0 1.0 0.00 0.13 0.00 99 1016.9
20260504235304 48 42 0.0 1.0 0.00 0.13 0.00 99 1017.0
20260504235203 48 42 0.0 1.0 0.00 0.13 0.00 99 1016.8
20260504235103 48 42 0.0 1.0 0.00 0.13 0.00 99 1017.0
20260504235003 48 42 0.0 1.0 0.00 0.13 0.00 99 1017.1
20260504234903 48 42 0.0 1.0 0.00 0.13 0.00 99 1016.9
20260504234803 48 42 0.0 1.0 0.00 0.13 0.00 99 1017.0
20260504234724 48 42 0.0 1.0 0.00 0.13 0.00 99 1017.0
20260504234603 48 42 0.0 1.0 0.00 0.13 0.00 99 1017.0
20260504234503 48 42 0.0 1.0 0.00 0.13 0.00 99 1017.0
20260504234424 48 42 0.0 1.0 0.00 0.13 0.00 99 1017.0
20260504234303 48 42 0.0 1.0 0.00 0.13 0.00 99 1016.8
20260504234203 48 41 0.0 1.0 0.00 0.13 0.00 99 1017.1
20260504234103 48 41 0.0 1.0 0.00 0.13 0.00 99 1017.0
20260504234003 48 42 0.0 1.0 0.00 0.13 0.00 99 1016.9
20260504233903 48 41 0.0 1.0 0.00 0.13 0.00 99 1016.8
20260504233802 48 41 0.0 1.0 0.00 0.13 0.00 99 1016.9
20260504233703 48 41 0.0 1.0 0.00 0.13 0.00 99 1016.9
20260504233603 48 41 0.0 1.0 0.00 0.13 0.00 99 1016.9
20260504233503 48 41 0.0 1.0 0.00 0.13 0.00 99 1016.9
20260504233403 48 41 0.0 1.0 0.00 0.13 0.00 99 1017.1
20260504233324 48 41 0.0 1.0 0.00 0.13 0.00 99 1017.1
20260504233203 48 42 0.0 1.0 0.00 0.13 0.00 99 1017.1
20260504233103 48 42 1.0 1.0 0.00 0.13 0.00 99 1017.0
20260504233024 48 42 1.0 1.0 0.00 0.13 0.00 99 1017.0
20260504232903 48 42 0.0 1.0 0.00 0.13 0.00 99 1017.0
20260504232803 48 42 0.0 1.0 0.00 0.13 0.00 99 1017.0
20260504232703 48 42 0.0 1.0 0.00 0.13 0.00 98 1017.1
20260504232624 48 42 0.0 1.0 0.00 0.13 0.00 99 1017.0
20260504232503 48 42 0.0 1.0 0.00 0.13 0.00 98 1017.0
20260504232424 48 42 0.0 1.0 0.00 0.13 0.00 98 1017.1
20260504232304 48 42 0.0 1.0 0.00 0.13 0.00 98 1017.0
20260504232202 48 42 0.0 1.0 0.00 0.13 0.00 98 1017.1
20260504232103 48 42 0.0 1.0 0.00 0.13 0.00 98 1017.0
20260504232003 48 44 0.0 1.0 0.00 0.13 0.00 98 1017.2
20260504231903 48 43 0.0 1.0 0.00 0.13 0.00 98 1017.2
20260504231803 48 43 0.0 1.0 0.00 0.13 0.00 98 1017.0
20260504231703 48 43 0.0 1.0 0.00 0.13 0.00 98 1017.2
20260504231624 48 43 0.0 1.0 0.00 0.13 0.00 98 1017.2
20260504231503 48 43 0.0 1.0 0.00 0.13 0.00 98 1017.1
20260504231403 48 42 1.0 1.0 0.00 0.13 0.00 98 1017.2
20260504231303 48 42 0.0 1.0 0.00 0.13 0.00 98 1017.1
20260504231203 48 41 1.0 1.0 0.00 0.13 0.00 98 1017.2
20260504231102 48 41 1.0 1.0 0.00 0.13 0.00 98 1017.2
20260504231024 48 41 0.0 1.0 0.00 0.13 0.00 98 1017.2
20260504230924 48 40 0.0 1.0 0.00 0.13 0.00 98 1017.1
20260504230803 48 40 0.0 1.0 0.00 0.13 0.00 98 1017.1
20260504230724 48 39 0.0 1.0 0.00 0.13 0.00 98 1017.1
20260504230624 48 39 0.0 1.0 0.00 0.13 0.00 98 1017.0
20260504230503 48 40 0.0 1.0 0.00 0.13 0.00 98 1017.0
20260504230403 48 40 0.0 1.0 0.00 0.13 0.00 98 1017.2
20260504230303 48 41 0.0 1.0 0.00 0.13 0.00 98 1017.1
20260504230203 48 41 0.0 1.0 0.00 0.13 0.00 98 1017.0
20260504230003 48 41 0.0 1.0 0.00 0.13 0.00 98 1017.2
20260504225903 48 41 0.0 1.0 0.00 0.13 0.00 98 1017.1
20260504225803 48 40 0.0 1.0 0.00 0.13 0.00 98 1017.2
20260504225703 48 40 0.0 1.0 0.00 0.13 0.00 98 1017.2
20260504225603 48 39 0.0 1.0 0.00 0.13 0.00 98 1017.1
20260504225524 48 39 0.0 1.0 0.00 0.13 0.00 98 1017.1
20260504225403 48 38 0.0 1.0 0.00 0.13 0.00 98 1017.2
20260504225304 48 38 0.0 1.0 0.00 0.13 0.00 98 1017.0
20260504225203 48 38 0.0 1.0 0.00 0.13 0.00 98 1017.0
20260504225103 48 38 0.0 1.0 0.00 0.13 0.00 98 1017.1
20260504225003 48 38 0.0 1.0 0.00 0.13 0.00 98 1017.2
20260504224903 48 38 0.0 1.0 0.00 0.13 0.00 98 1017.1
20260504224803 48 38 0.0 1.0 0.00 0.13 0.00 98 1017.1
20260504224703 48 38 0.0 1.0 0.00 0.13 0.00 98 1017.0
20260504224624 48 38 0.0 1.0 0.00 0.13 0.00 98 1017.2
20260504224503 48 38 0.0 1.0 0.00 0.13 0.00 98 1017.3
20260504224403 48 38 0.0 1.0 0.00 0.13 0.00 98 1017.0
20260504224303 48 38 0.0 1.0 0.00 0.13 0.00 98 1017.1
20260504224203 48 38 0.0 1.0 0.00 0.13 0.00 98 1017.1
20260504224103 48 38 0.0 1.0 0.00 0.13 0.00 98 1017.2
20260504224024 48 38 0.0 1.0 0.00 0.13 0.00 98 1017.2
20260504223903 48 38 0.0 1.0 0.00 0.13 0.00 98 1017.0
20260504223803 48 38 0.0 1.0 0.00 0.13 0.00 98 1017.2
20260504223724 48 38 0.0 1.0 0.00 0.13 0.00 98 1017.2
20260504223603 48 38 0.0 1.0 0.00 0.13 0.00 98 1017.2
20260504223503 49 38 0.0 1.0 0.00 0.13 0.00 98 1017.4
20260504223403 49 38 0.0 1.0 0.00 0.13 0.00 98 1017.4
20260504223324 49 38 0.0 1.0 0.00 0.13 0.00 98 1017.2
20260504223203 49 38 0.0 1.0 0.00 0.13 0.00 98 1017.0
20260504223103 49 38 0.0 1.0 0.00 0.13 0.00 98 1017.2
20260504223003 49 38 0.0 1.0 0.00 0.13 0.00 98 1017.3
20260504222903 49 38 0.0 1.0 0.00 0.13 0.00 98 1017.2
20260504222803 49 38 0.0 1.0 0.00 0.13 0.00 98 1017.1
20260504222724 49 38 0.0 1.0 0.00 0.13 0.00 98 1017.1
20260504222603 49 38 0.0 1.0 0.00 0.13 0.00 98 1017.2
20260504222503 49 38 0.0 1.0 0.00 0.13 0.00 98 1017.2
20260504222424 49 38 0.0 1.0 0.00 0.13 0.00 98 1017.2
20260504222304 49 38 0.0 1.0 0.00 0.13 0.00 98 1017.1
20260504222203 49 38 0.0 1.0 0.00 0.13 0.00 98 1017.2
20260504222103 49 38 0.0 1.0 0.00 0.13 0.00 98 1017.1
20260504222003 49 38 0.0 1.0 0.00 0.13 0.00 98 1017.1
20260504221902 49 38 0.0 1.0 0.00 0.13 0.00 98 1017.3
20260504221824 49 39 0.0 1.0 0.00 0.13 0.00 98 1017.2
20260504221724 49 39 0.0 1.0 0.00 0.13 0.00 98 1017.3
20260504221624 49 39 0.0 1.0 0.00 0.13 0.00 98 1017.3
20260504221503 49 39 0.0 1.0 0.00 0.13 0.00 98 1017.2
20260504221403 49 39 0.0 1.0 0.00 0.13 0.00 98 1017.3
20260504221324 49 39 0.0 1.0 0.00 0.13 0.00 98 1017.2
20260504221203 49 40 0.0 1.0 0.00 0.13 0.00 98 1017.3
20260504221124 49 40 0.0 1.0 0.00 0.13 0.00 98 1017.1
20260504221003 49 39 0.0 1.0 0.00 0.13 0.00 98 1017.3
20260504220903 49 39 0.0 1.0 0.00 0.13 0.00 98 1017.4
20260504220803 49 39 0.0 1.0 0.00 0.13 0.00 98 1017.1
20260504220724 49 39 0.0 1.0 0.00 0.13 0.00 98 1017.1
20260504220603 49 39 0.0 1.0 0.00 0.13 0.00 98 1017.1
20260504220503 49 39 0.0 1.0 0.00 0.13 0.00 98 1017.3
20260504220403 49 39 0.0 1.0 0.00 0.13 0.00 98 1017.4
20260504220303 49 39 0.0 1.0 0.00 0.13 0.00 98 1017.3
20260504220203 49 39 0.0 1.0 0.00 0.13 0.00 98 1017.2
20260504220004 49 39 0.0 1.0 0.00 0.13 0.00 98 1017.3
20260504215903 49 38 0.0 1.0 0.00 0.13 0.13 98 1017.2
20260504215803 49 38 0.0 1.0 0.00 0.13 0.13 98 1017.5
20260504215724 49 38 0.0 1.0 0.00 0.13 0.13 98 1017.3
20260504215603 49 38 0.0 1.0 0.00 0.13 0.13 98 1017.3
20260504215503 49 38 0.0 1.0 0.00 0.13 0.13 98 1017.4
20260504215403 49 38 0.0 1.0 0.00 0.13 0.13 98 1017.4
20260504215304 49 38 0.0 1.0 0.00 0.13 0.13 98 1017.4
20260504215224 50 38 0.0 1.0 0.00 0.13 0.13 98 1017.5
20260504215124 50 38 0.0 1.0 0.00 0.13 0.13 98 1017.3
20260504215003 49 38 0.0 1.0 0.00 0.13 0.13 98 1017.4
20260504214903 49 0 0.0 0.0 0.00 0.13 0.13 98 1017.3
20260504214824 49 0 0.0 0.0 0.00 0.13 0.13 98 1017.3
20260504214703 49 0 0.0 0.0 0.00 0.13 0.13 98 1017.4
20260504214624 49 0 0.0 0.0 0.00 0.13 0.13 98 1017.3
20260504214503 49 0 0.0 0.0 0.00 0.13 0.13 98 1017.6
20260504214403 50 46 0.0 1.0 0.00 0.13 0.13 98 1017.3
20260504214303 50 43 0.0 1.0 0.00 0.13 0.13 98 1017.5
20260504214203 50 43 0.0 1.0 0.00 0.13 0.13 97 1017.5
20260504214103 50 43 0.0 1.0 0.00 0.13 0.13 97 1017.4
20260504214024 50 42 0.0 1.0 0.00 0.13 0.13 97 1017.5
20260504213903 50 42 0.0 1.0 0.00 0.13 0.13 97 1017.5
20260504213824 50 42 0.0 1.0 0.00 0.13 0.13 97 1017.5
20260504213724 50 41 0.0 1.0 0.00 0.13 0.13 97 1017.4
20260504213603 50 41 0.0 1.0 0.00 0.13 0.13 97 1017.4
20260504213503 50 42 1.0 1.0 0.00 0.13 0.13 97 1017.4
20260504213403 50 42 1.0 1.0 0.00 0.13 0.13 97 1017.5
20260504213303 50 42 1.0 1.0 0.00 0.13 0.13 97 1017.5
20260504213203 50 43 1.0 2.0 0.00 0.13 0.13 97 1017.3
20260504213103 50 42 1.0 2.0 0.00 0.13 0.13 97 1017.3
20260504213003 50 43 1.0 2.0 0.00 0.13 0.13 97 1017.4
20260504212903 50 42 1.0 2.0 0.00 0.13 0.13 97 1017.4
20260504212803 50 43 1.0 2.0 0.00 0.13 0.13 97 1017.5
20260504212703 50 43 1.0 2.0 0.00 0.13 0.13 97 1017.4
20260504212603 50 43 1.0 2.0 0.00 0.13 0.13 97 1017.4
20260504212403 50 41 1.0 2.0 0.00 0.13 0.13 97 1017.4
20260504212304 50 42 1.0 2.0 0.00 0.13 0.13 97 1017.4
20260504212203 50 37 1.0 2.0 0.00 0.13 0.13 97 1017.4
20260504212103 50 31 1.0 1.0 0.00 0.13 0.13 97 1017.4
20260504212024 50 26 1.0 1.0 0.00 0.13 0.13 97 1017.4
20260504211924 50 19 1.0 1.0 0.00 0.13 0.13 97 1017.6
20260504211803 50 18 1.0 1.0 0.00 0.13 0.13 97 1017.5
20260504211703 50 11 1.0 1.0 0.00 0.13 0.13 97 1017.5
20260504211603 50 7 1.0 1.0 0.00 0.13 0.13 97 1017.7
20260504211503 50 3 1.0 1.0 0.00 0.13 0.13 97 1017.5
20260504211403 50 358 0.0 1.0 0.00 0.13 0.13 97 1017.5
20260504211324 50 358 0.0 1.0 0.00 0.13 0.13 97 1017.5
20260504211203 50 348 0.0 1.0 0.00 0.13 0.13 97 1017.6
20260504211103 50 348 0.0 1.0 0.00 0.13 0.13 97 1017.5
20260504211003 50 348 0.0 1.0 0.00 0.13 0.13 97 1017.4
20260504210903 50 348 0.0 1.0 0.00 0.13 0.13 97 1017.6
20260504210803 50 348 0.0 1.0 0.00 0.13 0.13 97 1017.5
20260504210703 50 348 0.0 1.0 0.00 0.13 0.13 97 1017.6
20260504210624 50 0 0.0 0.0 0.00 0.13 0.13 97 1017.5
20260504210524 50 0 0.0 0.0 0.00 0.13 0.13 97 1017.7
20260504210403 50 0 0.0 0.0 0.00 0.13 0.13 97 1017.6
20260504210303 50 348 0.0 1.0 0.00 0.13 0.13 97 1017.4
20260504210203 50 348 0.0 1.0 0.00 0.13 0.13 97 1017.4
20260504210124 50 348 0.0 1.0 0.00 0.13 0.13 97 1017.4
20260504210003 50 348 0.0 1.0 0.00 0.13 0.13 97 1017.4
20260504205903 50 348 0.0 1.0 0.00 0.13 0.13 97 1017.5
20260504205803 50 348 0.0 1.0 0.00 0.13 0.13 97 1017.4
20260504205703 50 348 0.0 1.0 0.00 0.13 0.13 97 1017.5
20260504205603 50 348 0.0 1.0 0.00 0.13 0.13 97 1017.2
20260504205503 50 348 0.0 1.0 0.00 0.13 0.13 97 1017.2
20260504205403 50 348 0.0 1.0 0.00 0.13 0.13 97 1017.4
20260504205304 50 348 0.0 1.0 0.00 0.13 0.13 97 1017.5
20260504205203 50 348 0.0 1.0 0.00 0.13 0.13 97 1017.5
20260504205103 50 348 0.0 1.0 0.00 0.13 0.13 97 1017.5
20260504205003 50 348 0.0 1.0 0.00 0.13 0.13 97 1017.4
20260504204903 50 348 0.0 1.0 0.00 0.13 0.13 96 1017.3
20260504204803 50 348 0.0 1.0 0.00 0.13 0.13 96 1017.5
20260504204703 50 348 0.0 1.0 0.00 0.13 0.13 96 1017.5
20260504204603 50 348 0.0 1.0 0.00 0.13 0.13 96 1017.4
20260504204503 50 348 0.0 1.0 0.00 0.13 0.13 96 1017.5
20260504204403 50 348 0.0 1.0 0.00 0.13 0.13 96 1017.5
20260504204324 50 348 0.0 1.0 0.00 0.13 0.13 96 1017.3
20260504204203 50 348 0.0 1.0 0.00 0.13 0.13 96 1017.4
20260504204103 50 348 0.0 1.0 0.00 0.13 0.13 96 1017.4
20260504204024 50 0 0.0 0.0 0.01 0.13 0.13 96 1017.3
20260504203903 51 0 0.0 0.0 0.01 0.13 0.13 96 1017.4
20260504203824 51 0 0.0 0.0 0.01 0.13 0.13 96 1017.3
20260504203703 51 0 0.0 0.0 0.01 0.13 0.13 96 1017.4
20260504203603 51 0 0.0 0.0 0.01 0.13 0.13 96 1017.4
20260504203503 51 0 0.0 0.0 0.01 0.13 0.13 96 1017.4
20260504203403 51 0 0.0 0.0 0.01 0.13 0.13 96 1017.4
20260504203303 51 0 0.0 0.0 0.01 0.13 0.13 96 1017.2
20260504203203 51 0 0.0 0.0 0.01 0.13 0.13 96 1017.2
20260504203103 51 0 0.0 0.0 0.01 0.13 0.13 96 1017.4
20260504203024 51 0 0.0 0.0 0.01 0.13 0.13 96 1017.2
20260504202903 51 0 0.0 0.0 0.01 0.13 0.13 96 1017.3
20260504202824 51 0 0.0 0.0 0.01 0.13 0.13 96 1017.3
20260504202703 51 0 0.0 0.0 0.01 0.13 0.13 96 1017.1
20260504202603 51 0 0.0 0.0 0.01 0.13 0.13 96 1017.2
20260504202503 51 0 0.0 0.0 0.01 0.13 0.13 96 1017.2
20260504202403 51 0 0.0 0.0 0.01 0.13 0.13 96 1017.3
20260504202304 51 348 0.0 1.0 0.01 0.13 0.13 96 1017.2
20260504202224 51 348 0.0 1.0 0.01 0.13 0.13 96 1017.2
20260504202103 51 348 0.0 1.0 0.01 0.13 0.13 96 1017.3
20260504202003 51 348 0.0 1.0 0.01 0.13 0.13 96 1017.3
20260504201903 51 348 0.0 1.0 0.01 0.13 0.13 96 1017.1
20260504201803 51 348 0.0 1.0 0.01 0.13 0.13 96 1017.2
20260504201703 51 348 0.0 1.0 0.01 0.13 0.13 96 1017.1
20260504201603 51 348 0.0 1.0 0.01 0.13 0.13 96 1017.1
20260504201503 51 348 0.0 1.0 0.01 0.13 0.13 96 1017.2
20260504201403 51 348 0.0 1.0 0.01 0.13 0.13 96 1017.1
20260504201303 51 348 0.0 1.0 0.01 0.13 0.13 96 1017.1
20260504201203 51 348 0.0 1.0 0.01 0.13 0.13 96 1017.1
20260504201103 51 348 0.0 1.0 0.01 0.13 0.13 96 1017.1
20260504201003 51 348 0.0 1.0 0.01 0.13 0.13 96 1017.0
20260504200903 51 348 0.0 1.0 0.01 0.13 0.13 96 1017.2
20260504200803 51 340 0.0 2.0 0.01 0.13 0.13 96 1017.1
20260504200724 51 340 0.0 2.0 0.01 0.13 0.13 96 1017.1
20260504200603 51 348 0.0 2.0 0.01 0.13 0.13 96 1017.2
20260504200503 51 358 0.0 2.0 0.01 0.13 0.13 95 1017.1
20260504200403 51 358 0.0 2.0 0.01 0.13 0.13 95 1017.1
20260504200303 51 4 0.0 2.0 0.01 0.13 0.13 95 1017.2
20260504200203 51 4 0.0 2.0 0.01 0.13 0.13 95 1017.0
20260504200003 51 14 1.0 2.0 0.01 0.13 0.13 95 1017.2
20260504195903 51 28 1.0 2.0 0.01 0.13 0.13 95 1017.0
20260504195803 51 33 1.0 2.0 0.01 0.13 0.13 95 1017.1
20260504195703 51 41 1.0 2.0 0.01 0.13 0.13 95 1017.1
20260504195624 51 40 1.0 2.0 0.01 0.13 0.13 95 1017.1
20260504195503 51 42 1.0 2.0 0.01 0.13 0.13 95 1017.0
20260504195403 51 38 1.0 2.0 0.01 0.13 0.13 95 1017.0
20260504195304 51 37 1.0 2.0 0.01 0.13 0.13 95 1017.1
20260504195203 51 37 1.0 2.0 0.02 0.13 0.13 95 1017.1
20260504195103 51 38 0.0 2.0 0.02 0.13 0.13 95 1017.1
20260504195003 51 38 0.0 2.0 0.02 0.13 0.13 95 1017.0
20260504194903 51 25 0.0 2.0 0.02 0.13 0.13 95 1017.1
20260504194824 51 25 0.0 2.0 0.03 0.13 0.13 95 1017.1
20260504194703 51 23 0.0 2.0 0.03 0.13 0.13 95 1017.0
20260504194603 51 38 0.0 1.0 0.03 0.13 0.13 95 1016.8
20260504194503 51 0 0.0 0.0 0.03 0.13 0.13 95 1017.0
20260504194424 51 0 0.0 0.0 0.03 0.13 0.13 95 1016.9
20260504194324 51 32 0.0 1.0 0.03 0.13 0.13 95 1016.8
20260504194224 51 40 0.0 1.0 0.03 0.13 0.13 95 1016.9
20260504194103 51 38 0.0 1.0 0.03 0.13 0.13 95 1016.8
20260504194003 51 38 0.0 1.0 0.02 0.12 0.12 95 1016.9
20260504193924 51 38 0.0 1.0 0.02 0.12 0.12 95 1016.9
20260504193803 51 46 0.0 2.0 0.02 0.12 0.12 94 1016.7
20260504193703 51 44 1.0 2.0 0.02 0.12 0.12 94 1016.8
20260504193624 51 44 1.0 2.0 0.02 0.12 0.12 94 1016.8
20260504193503 51 46 1.0 2.0 0.02 0.12 0.12 94 1016.8
20260504193403 51 45 1.0 2.0 0.02 0.12 0.12 94 1016.8
20260504193303 51 43 1.0 2.0 0.02 0.12 0.12 94 1016.9
20260504193203 51 44 1.0 2.0 0.02 0.12 0.12 94 1016.7
20260504193124 51 40 1.0 2.0 0.02 0.12 0.12 94 1016.8
20260504193003 51 38 1.0 2.0 0.02 0.12 0.12 94 1016.6
20260504192903 51 38 1.0 2.0 0.02 0.12 0.12 94 1016.8
20260504192803 51 35 1.0 2.0 0.02 0.12 0.12 94 1016.6
20260504192703 51 28 1.0 2.0 0.02 0.12 0.12 94 1016.8
20260504192603 51 26 1.0 2.0 0.02 0.12 0.12 94 1016.6
20260504192524 51 26 1.0 2.0 0.02 0.12 0.12 94 1016.6
20260504192424 51 19 1.0 1.0 0.02 0.12 0.12 94 1016.8
20260504192324 51 16 1.0 1.0 0.02 0.12 0.12 94 1016.6
20260504192224 51 14 1.0 1.0 0.02 0.12 0.12 93 1016.5
20260504192103 51 11 0.0 1.0 0.02 0.12 0.12 93 1016.6
20260504192024 51 11 0.0 1.0 0.02 0.12 0.12 93 1016.6
20260504191903 51 11 0.0 1.0 0.02 0.12 0.12 93 1016.6
20260504191824 51 11 0.0 1.0 0.02 0.12 0.12 93 1016.4
20260504191703 52 9 0.0 1.0 0.02 0.12 0.12 93 1016.7
20260504191603 52 6 0.0 1.0 0.02 0.12 0.12 93 1016.6
20260504191503 52 5 0.0 1.0 0.02 0.12 0.12 93 1016.4
20260504191403 52 3 0.0 1.0 0.02 0.12 0.12 93 1016.7
20260504191303 52 356 1.0 2.0 0.02 0.12 0.12 93 1016.6
20260504191224 52 354 1.0 2.0 0.02 0.12 0.12 92 1016.7
20260504191103 52 353 1.0 2.0 0.02 0.12 0.12 92 1016.6
20260504191003 52 353 1.0 2.0 0.02 0.12 0.12 92 1016.4
20260504190903 52 360 1.0 2.0 0.02 0.12 0.12 92 1016.5
20260504190803 52 359 1.0 2.0 0.02 0.12 0.12 92 1016.6
20260504190703 53 356 1.0 3.0 0.02 0.12 0.12 92 1016.5
20260504190603 53 350 1.0 3.0 0.02 0.12 0.12 92 1016.4
20260504190503 53 349 1.0 3.0 0.02 0.12 0.12 92 1016.6
20260504190403 53 349 1.0 3.0 0.02 0.12 0.12 92 1016.6
20260504190303 53 349 2.0 3.0 0.02 0.12 0.12 92 1016.4
20260504190203 53 350 2.0 3.0 0.02 0.12 0.12 91 1016.5
20260504190003 53 329 2.0 6.0 0.02 0.12 0.12 91 1016.6
20260504185903 53 326 2.0 6.0 0.02 0.12 0.12 91 1016.4
20260504185803 53 319 2.0 6.0 0.02 0.12 0.12 90 1016.5
20260504185703 53 319 2.0 6.0 0.02 0.12 0.12 90 1016.7
20260504185224 54 324 2.0 6.0 0.01 0.11 0.11 88 1016.5
20260504185103 54 324 2.0 6.0 0.01 0.11 0.11 88 1016.5
20260504185025 54 324 2.0 6.0 0.01 0.11 0.11 88 1016.5
20260504184903 54 338 1.0 3.0 0.01 0.11 0.11 87 1016.7
20260504184824 54 333 2.0 3.0 0.00 0.10 0.10 87 1016.5
20260504184703 54 332 2.0 3.0 0.00 0.10 0.10 87 1016.5
20260504184624 54 332 2.0 3.0 0.00 0.10 0.10 86 1016.6
20260504184503 54 331 2.0 3.0 0.00 0.10 0.10 86 1016.5
20260504184403 54 330 2.0 3.0 0.00 0.10 0.10 86 1016.5
20260504184303 54 329 2.0 3.0 0.00 0.10 0.10 86 1016.5
20260504184203 54 329 2.0 3.0 0.00 0.10 0.10 85 1016.5
20260504184103 54 328 2.0 3.0 0.00 0.10 0.10 85 1016.5
20260504184003 54 328 2.0 3.0 0.00 0.10 0.10 85 1016.5
20260504183924 54 328 2.0 3.0 0.00 0.10 0.10 85 1016.5
20260504183803 54 328 2.0 3.0 0.00 0.10 0.10 85 1016.4
20260504183703 54 328 2.0 3.0 0.00 0.10 0.10 85 1016.2
20260504183624 54 328 2.0 3.0 0.00 0.10 0.10 85 1016.2
20260504183503 54 322 2.0 3.0 0.00 0.10 0.10 85 1016.3
20260504183403 54 317 2.0 4.0 0.00 0.10 0.10 84 1016.3
20260504183303 54 308 2.0 6.0 0.00 0.10 0.10 84 1016.3
20260504183203 54 306 2.0 6.0 0.00 0.10 0.10 84 1016.4
20260504183103 54 306 2.0 6.0 0.00 0.10 0.10 84 1016.3
20260504183003 54 308 2.0 6.0 0.00 0.10 0.10 83 1016.3
20260504182903 55 308 2.0 6.0 0.00 0.10 0.10 83 1016.3
20260504182803 55 305 2.0 6.0 0.00 0.10 0.10 83 1016.3
20260504182703 55 306 2.0 6.0 0.00 0.10 0.10 83 1016.3
20260504182603 55 306 2.0 6.0 0.00 0.10 0.10 83 1016.3
20260504182503 55 310 2.0 6.0 0.00 0.10 0.10 83 1016.2
20260504182403 55 310 2.0 6.0 0.00 0.10 0.10 83 1016.2
20260504182304 55 314 2.0 6.0 0.00 0.10 0.10 83 1016.3
20260504182224 55 325 1.0 3.0 0.00 0.10 0.10 83 1016.4
20260504182103 55 329 1.0 3.0 0.00 0.10 0.10 82 1016.3
20260504182003 55 326 1.0 3.0 0.01 0.10 0.10 82 1016.3
20260504181903 55 325 1.0 3.0 0.01 0.10 0.10 82 1016.4
20260504181824 55 322 1.0 3.0 0.01 0.10 0.10 82 1016.3
20260504181703 55 322 1.0 3.0 0.01 0.10 0.10 82 1016.3
20260504181603 56 319 2.0 3.0 0.01 0.10 0.10 81 1016.4
20260504181524 56 319 2.0 3.0 0.01 0.10 0.10 81 1016.4
20260504181424 56 318 2.0 3.0 0.01 0.10 0.10 81 1016.3
20260504181324 56 314 2.0 6.0 0.01 0.10 0.10 80 1016.3
20260504181203 56 312 2.0 6.0 0.01 0.10 0.10 80 1016.2
20260504181103 57 311 2.0 6.0 0.01 0.10 0.10 80 1016.3
20260504181003 57 311 2.0 6.0 0.01 0.10 0.10 79 1016.2
20260504180903 57 313 2.0 6.0 0.01 0.10 0.10 78 1016.3
20260504180824 58 314 2.0 6.0 0.01 0.10 0.10 78 1016.3
20260504180703 58 317 2.0 6.0 0.01 0.10 0.10 77 1016.2
20260504180603 58 317 3.0 6.0 0.01 0.10 0.10 76 1016.4
20260504180525 59 317 3.0 6.0 0.01 0.10 0.10 76 1016.2
20260504180403 59 318 3.0 6.0 0.01 0.10 0.10 75 1016.3
20260504180324 59 318 3.0 6.0 0.01 0.10 0.10 75 1016.3
20260504180203 59 307 3.0 7.0 0.01 0.10 0.10 75 1016.3
20260504180103 59 309 3.0 7.0 0.01 0.10 0.10 76 1016.1
20260504180024 59 309 3.0 7.0 0.01 0.10 0.10 76 1016.1
20260504175903 58 310 3.0 7.0 0.01 0.10 0.10 77 1016.4
20260504175803 58 301 3.0 7.0 0.01 0.10 0.10 76 1016.2
20260504175703 58 300 3.0 7.0 0.01 0.10 0.10 76 1016.2
20260504175603 58 301 3.0 7.0 0.01 0.10 0.10 75 1016.3
20260504175503 58 299 3.0 7.0 0.01 0.10 0.10 75 1016.3
20260504175403 58 299 3.0 7.0 0.01 0.10 0.10 75 1016.3
20260504175304 58 300 3.0 7.0 0.01 0.10 0.10 74 1016.3
20260504175203 58 305 3.0 7.0 0.01 0.10 0.10 74 1016.4
20260504175103 58 313 3.0 6.0 0.01 0.10 0.10 74 1016.2
20260504175003 59 313 3.0 6.0 0.01 0.10 0.10 74 1016.3
20260504174903 59 311 2.0 6.0 0.01 0.10 0.10 74 1016.3
20260504174803 59 311 2.0 6.0 0.01 0.10 0.10 74 1016.3
20260504174703 59 321 2.0 6.0 0.01 0.10 0.10 74 1016.3
20260504174625 59 321 2.0 6.0 0.01 0.10 0.10 73 1016.4
20260504174503 59 319 2.0 4.0 0.01 0.10 0.10 75 1016.2
20260504174424 60 325 2.0 4.0 0.01 0.10 0.10 75 1016.3
20260504174303 60 331 2.0 4.0 0.01 0.10 0.10 76 1016.2
20260504174203 60 335 2.0 4.0 0.01 0.10 0.10 76 1016.2
20260504174103 60 337 2.0 4.0 0.01 0.10 0.10 78 1016.3
20260504174003 60 335 2.0 4.0 0.01 0.10 0.10 80 1016.2
20260504173903 59 337 2.0 4.0 0.01 0.10 0.10 80 1016.4
20260504173803 59 336 2.0 4.0 0.01 0.10 0.10 79 1016.3
20260504173724 59 336 2.0 4.0 0.01 0.10 0.10 79 1016.3
20260504173604 59 337 2.0 4.0 0.01 0.10 0.10 80 1016.3
20260504173503 59 341 2.0 4.0 0.01 0.10 0.10 81 1016.3
20260504173403 59 337 2.0 6.0 0.01 0.10 0.10 81 1016.4
20260504173303 58 337 2.0 6.0 0.01 0.10 0.10 81 1016.2
20260504173224 58 337 2.0 6.0 0.01 0.10 0.10 81 1016.4
20260504173124 58 335 2.0 6.0 0.01 0.10 0.10 82 1016.1
20260504173004 58 333 2.0 6.0 0.01 0.10 0.10 82 1016.4
20260504172903 58 324 3.0 6.0 0.01 0.10 0.10 82 1016.4
20260504172824 58 322 3.0 6.0 0.01 0.10 0.10 83 1016.3
20260504172703 58 324 3.0 6.0 0.01 0.10 0.10 84 1016.4
20260504172603 57 316 3.0 6.0 0.01 0.10 0.10 84 1016.4
20260504172503 57 311 3.0 6.0 0.01 0.10 0.10 84 1016.5
20260504172424 57 311 3.0 6.0 0.01 0.10 0.10 84 1016.5
20260504172304 57 312 2.0 6.0 0.01 0.10 0.10 84 1016.4
20260504172203 57 313 2.0 6.0 0.01 0.10 0.10 84 1016.5
20260504172103 57 315 3.0 6.0 0.01 0.10 0.10 83 1016.4
20260504172003 57 316 3.0 6.0 0.00 0.09 0.09 83 1016.4
20260504171903 57 318 3.0 6.0 0.00 0.09 0.09 82 1016.3
20260504171824 57 330 3.0 6.0 0.00 0.09 0.09 82 1016.3
20260504171703 57 332 3.0 6.0 0.00 0.09 0.09 81 1016.3
20260504171603 57 333 3.0 6.0 0.00 0.09 0.09 80 1016.3
20260504171503 58 341 2.0 6.0 0.00 0.09 0.09 80 1016.5
20260504171403 58 347 3.0 6.0 0.00 0.09 0.09 79 1016.2
20260504171303 58 349 3.0 6.0 0.00 0.09 0.09 78 1016.2
20260504171203 58 349 3.0 6.0 0.00 0.09 0.09 78 1016.2
20260504171103 59 348 3.0 6.0 0.00 0.09 0.09 77 1016.2
20260504171003 59 349 2.0 6.0 0.00 0.09 0.09 77 1016.3
20260504170903 59 344 2.0 6.0 0.00 0.09 0.09 77 1016.1
20260504170803 59 341 2.0 6.0 0.00 0.09 0.09 77 1016.3
20260504170703 59 330 2.0 4.0 0.00 0.09 0.09 78 1016.4
20260504170603 58 329 2.0 4.0 0.00 0.09 0.09 78 1016.2
20260504170503 58 326 2.0 4.0 0.00 0.09 0.09 78 1016.2
20260504170403 58 318 3.0 6.0 0.00 0.09 0.09 78 1016.0
20260504170303 58 307 3.0 6.0 0.00 0.09 0.09 78 1016.1
20260504170203 58 299 3.0 6.0 0.00 0.09 0.09 78 1016.4
20260504170124 58 299 3.0 6.0 0.00 0.09 0.09 78 1016.4
20260504160424 57 311 2.0 6.0 0.00 0.09 0.09 83 1016.1
20260504160303 57 317 2.0 6.0 0.00 0.09 0.09 83 1016.2
20260504160203 57 315 2.0 6.0 0.00 0.09 0.09 83 1016.3
20260504151103 55 104 3.0 6.0 0.00 0.09 0.09 92 1016.4
20260504151003 55 103 3.0 6.0 0.00 0.09 0.09 92 1016.4
20260504150903 55 100 2.0 6.0 0.00 0.09 0.09 92 1016.3
20260504150803 55 97 2.0 6.0 0.00 0.09 0.09 91 1016.5
20260504150703 55 90 2.0 6.0 0.00 0.09 0.09 91 1016.3
20260504150624 55 79 2.0 6.0 0.00 0.09 0.09 91 1016.4
20260504150503 55 73 2.0 4.0 0.00 0.09 0.09 91 1016.2
20260504150403 55 73 1.0 4.0 0.00 0.09 0.09 91 1016.4
20260504150303 55 73 1.0 4.0 0.00 0.09 0.09 91 1016.3
20260504150203 55 68 1.0 4.0 0.00 0.09 0.09 91 1016.3
20260504150103 55 69 1.0 4.0 0.00 0.09 0.09 91 1016.3
20260504141303 54 42 1.0 2.0 0.01 0.09 0.09 92 1016.5
20260504141203 54 44 1.0 2.0 0.01 0.09 0.09 92 1016.6
20260504141103 54 45 1.0 2.0 0.01 0.09 0.09 92 1016.4
20260504141003 54 51 1.0 2.0 0.02 0.09 0.09 92 1016.6
20260504140924 54 51 1.0 2.0 0.02 0.09 0.09 92 1016.6
20260504140803 55 52 1.0 2.0 0.02 0.09 0.09 92 1016.6
20260504140703 55 54 1.0 2.0 0.02 0.09 0.09 92 1016.6
20260504140624 55 53 1.0 2.0 0.02 0.09 0.09 92 1016.7
20260504140503 55 52 1.0 2.0 0.02 0.09 0.09 92 1016.5
20260504140424 55 57 1.0 2.0 0.02 0.09 0.09 92 1016.4
20260504140303 55 67 1.0 2.0 0.02 0.09 0.09 92 1016.4
20260504140203 55 66 1.0 2.0 0.02 0.09 0.09 92 1016.4
20260504130803 55 36 1.0 2.0 0.01 0.07 0.07 91 1016.4
20260504130703 55 49 1.0 2.0 0.02 0.07 0.07 91 1016.3
20260504130603 55 48 1.0 2.0 0.02 0.07 0.07 91 1016.4
20260504130503 55 46 1.0 2.0 0.02 0.07 0.07 91 1016.3
20260504130424 55 41 1.0 2.0 0.02 0.07 0.07 91 1016.2
20260504130303 55 36 1.0 2.0 0.02 0.07 0.07 91 1016.2
20260504130224 55 36 1.0 2.0 0.02 0.07 0.07 91 1016.2
20260504130103 55 21 1.0 2.0 0.03 0.07 0.07 91 1016.3
20260504120303 55 38 1.0 2.0 0.05 0.05 0.05 89 1016.4
20260504120203 55 42 1.0 3.0 0.05 0.05 0.05 89 1016.5
20260504110703 56 218 2.0 7.0 0.00 0.00 0.00 79 1016.6
20260504110603 56 219 2.0 7.0 0.00 0.00 0.00 79 1016.6
20260504110524 56 220 2.0 7.0 0.00 0.00 0.00 78 1016.6
20260504110403 57 221 2.0 7.0 0.00 0.00 0.00 79 1016.5
20260504110303 57 212 2.0 7.0 0.00 0.00 0.00 80 1016.5
20260504110203 57 208 2.0 4.0 0.00 0.00 0.00 80 1016.4
20260504100603 59 305 2.0 6.0 0.00 0.00 0.00 72 1016.4
20260504100524 59 312 2.0 6.0 0.00 0.00 0.00 72 1016.3
20260504100403 59 313 2.0 6.0 0.00 0.00 0.00 72 1016.3
20260504100303 59 310 2.0 6.0 0.00 0.00 0.00 72 1016.3
20260504100203 59 309 2.0 6.0 0.00 0.00 0.00 71 1016.3
20260504100103 60 318 2.0 6.0 0.00 0.00 0.00 71 1016.4
20260504082003 53 42 0.0 1.0 0.00 0.00 0.00 99 1016.4
20260504081924 53 45 0.0 1.0 0.00 0.00 0.00 99 1016.6
20260504081803 53 45 0.0 1.0 0.00 0.00 0.00 99 1016.4
20260504081703 53 45 0.0 1.0 0.00 0.00 0.00 99 1016.4
20260504081603 53 49 0.0 2.0 0.00 0.00 0.00 99 1016.4
20260504081503 53 48 0.0 2.0 0.00 0.00 0.00 99 1016.5
20260504081403 53 47 0.0 2.0 0.00 0.00 0.00 99 1016.4
20260504081303 53 47 1.0 2.0 0.00 0.00 0.00 99 1016.4
20260504081203 53 48 1.0 2.0 0.00 0.00 0.00 99 1016.5
20260504081103 52 48 1.0 2.0 0.00 0.00 0.00 99 1016.4
20260504081003 52 48 1.0 2.0 0.00 0.00 0.00 99 1016.3
20260504080903 52 47 1.0 2.0 0.00 0.00 0.00 99 1016.5
20260504080803 52 46 1.0 2.0 0.00 0.00 0.00 99 1016.4
20260504080703 52 46 1.0 2.0 0.00 0.00 0.00 99 1016.4
20260504080603 52 44 1.0 2.0 0.00 0.00 0.00 99 1016.3
20260504080503 52 44 1.0 2.0 0.00 0.00 0.00 99 1016.3
20260504080403 52 44 0.0 2.0 0.00 0.00 0.00 99 1016.4
20260504080303 52 44 0.0 2.0 0.00 0.00 0.00 99 1016.4
20260504080203 52 43 0.0 1.0 0.00 0.00 0.00 99 1016.3
20260504070403 49 43 0.0 1.0 0.00 0.01 0.00 99 1016.0
20260504070324 49 43 0.0 1.0 0.00 0.01 0.00 99 1016.0
20260504070203 49 43 0.0 1.0 0.00 0.01 0.00 99 1016.1
20260504070103 49 43 0.0 1.0 0.00 0.01 0.00 99 1016.0
20260504060203 47 50 1.0 2.0 0.00 0.01 0.00 99 1015.7